Regional Weather Roundup
Issued by NWS Little Rock, AR

Home | Current Version | Previous Version | Text Only | Print | Product List | Glossary Off
Versions: 1 2 3 4 5 6 7 8 9 10 11 12 13 14 15 16 17 18 19 20 21 22 23 24 25 26 27 28 29 30 31 32 33 34 35 36 37 38 39 40 41 42 43 44 45 46 47 48 49 50

000
ASUS44 KLZK 220905
RWRLZK

WEATHER ROUNDUP FOR ARKANSAS
NATIONAL WEATHER SERVICE LITTLE ROCK AR
400 AM CDT TUE JUL 22 2014

NOTE: "FAIR" INDICATES FEW OR NO CLOUDS BELOW 12,000 FEET WITH NO
SIGNIFICANT WEATHER AND/OR OBSTRUCTIONS TO VISIBILITY.

ARZ001-003-010-029-221000-
NORTHWEST ARKANSAS

CITY           SKY/WX    TMP DP  RH WIND       PRES   REMARKS
FAYETTEVILLE   CLEAR     65  65 100 CALM      30.10R
FORT SMITH     PTCLDY    73  69  87 NE5       30.05S
HARRISON       PTCLDY    67  67 100 SE3       30.09F
BENTONVILLE    CLEAR     68  64  88 CALM      30.10R
ROGERS         PTCLDY    70  66  87 SE6       30.11R
SILOAM SPGS    CLEAR     70  63  78 CALM      30.10R
HIGHFILL       CLEAR     67  65  93 CALM      30.09R
$$

ARZ004-005-016-221000-
NORTH CENTRAL ARKANSAS

CITY           SKY/WX    TMP DP  RH WIND       PRES   REMARKS
BATESVILLE     CLEAR     64  64 100 CALM      30.07F
FLIPPIN        CLEAR     66  63  88 NE3       30.08S
MTN HOME       CLEAR     66  65  96 CALM      30.08S FOG
$$

ARZ040-041-221000-
WEST CENTRAL ARKANSAS

CITY           SKY/WX    TMP DP  RH WIND       PRES   REMARKS
MENA           PTCLDY    66  64  94 CALM      30.09S
MOUNT IDA      CLEAR     65  64  97 CALM      30.06S FOG
$$

ARZ009-017-025-026-028-221000-
NORTHEAST ARKANSAS

CITY           SKY/WX    TMP DP  RH WIND       PRES   REMARKS
CORNING        FAIR      66  66 100 CALM      30.09R FOG
JONESBORO      CLEAR     65  63  93 CALM      30.07S
NEWPORT        CLEAR     68  67  96 N5        30.08S
WALNUT RIDGE   CLEAR     70  45  40 CALM      30.08R
BLYTHEVILLE    CLEAR     69  67  93 CALM      30.07S
$$

ARZ022-023-033-042-044-221000-
CENTRAL ARKANSAS

CITY           SKY/WX    TMP DP  RH WIND       PRES   REMARKS
LITTLE ROCK    CLEAR     69  66  90 CALM      30.06F
N LITTLE ROCK    N/A     69  67  93 CALM      30.06F
JACKSONVILLE   CLEAR     65  65  98 CALM      30.06F
SEARCY         CLEAR     67  67 100 CALM      30.08S FOG
HOT SPRINGS    CLOUDY    68  65  90 CALM      30.08R
RUSSELLVILLE   CLEAR     67  65  93 CALM      30.06S
CLINTON        FAIR      64  64 100 CALM      30.09S FOG
$$

ARZ036-221000-
EAST ARKANSAS

CITY           SKY/WX    TMP DP  RH WIND       PRES   REMARKS
WEST MEMPHIS   CLEAR     68  68 100 W3        30.06R FOG
$$

ARZ050-053-066-070-073-221000-
SOUTHWEST ARKANSAS

CITY           SKY/WX    TMP DP  RH WIND       PRES   REMARKS
ARKADELPHIA    FAIR      67  67 100 CALM      30.07R FOG
CAMDEN         FOG       66  64  94 CALM      30.06S VSB 1/4
TEXARKANA      CLEAR     70  69  97 CALM      30.05F
EL DORADO      CLEAR     67  66  97 CALM      30.06S
DE QUEEN       FOG       67  66  97 E3        30.04S VSB 1/4
$$

ARZ056-057-069-221000-
SOUTHEAST ARKANSAS

CITY           SKY/WX    TMP DP  RH WIND       PRES   REMARKS
PINE BLUFF     FOG       68  66  93 CALM      30.06S VSB 1
STUTTGART      CLEAR     70  66  88 N3        30.07S
MONTICELLO     CLEAR     69  67  93 CALM      30.05F

$$





USA.gov is the U.S. government's official web portal to all federal, state and local government web resources and services.